TimeHST,TemperatureF,Dew PointF,Humidity,Sea Level PressureIn,VisibilityMPH,Wind Direction,Wind SpeedMPH,Gust SpeedMPH,PrecipitationIn,Events,Conditions,WindDirDegrees,DateUTC
12:06 AM,71.1,71.1,100,29.97,2.5,NNE,13.8,23.0,0.07,Rain,Rain,20,2013-12-31 10:06:00
12:12 AM,71.1,71.1,100,29.97,1.8,North,15.0,-,0.14,Rain,Rain,360,2013-12-31 10:12:00
12:22 AM,70.0,70.0,100,29.97,2.0,NNE,16.1,23.0,0.39,Rain,Rain,20,2013-12-31 10:22:00
12:36 AM,70.0,70.0,100,29.97,3.0,NNE,11.5,-,0.56,Rain,Rain,20,2013-12-31 10:36:00
12:53 AM,71.1,71.1,100,29.96,5.0,NNE,12.7,-,0.60,Rain,Rain,20,2013-12-31 10:53:00
1:53 AM,70.0,70.0,100,29.95,7.0,NNW,11.5,-,0.08,Rain,Light Rain,330,2013-12-31 11:53:00
2:53 AM,71.1,71.1,100,29.95,10.0,NE,9.2,-,0.04,Rain,Light Rain,50,2013-12-31 12:53:00
3:05 AM,71.1,71.1,100,29.95,10.0,NE,6.9,-,0.00,Rain,Light Rain,40,2013-12-31 13:05:00
3:53 AM,70.0,70.0,100,29.95,4.0,ENE,4.6,-,0.02,Rain,Light Rain,60,2013-12-31 13:53:00
3:58 AM,70.0,70.0,100,29.95,4.0,Calm,Calm,-,0.01,Rain,Rain,0,2013-12-31 13:58:00
4:14 AM,69.1,69.1,100,29.95,3.0,West,3.5,-,0.12,Rain,Heavy Rain,280,2013-12-31 14:14:00
4:17 AM,69.1,69.1,100,29.95,2.5,West,4.6,-,0.13,Rain,Heavy Rain,270,2013-12-31 14:17:00
4:24 AM,69.1,69.1,100,29.95,1.8,West,5.8,-,0.18,Rain,Heavy Rain,280,2013-12-31 14:24:00
4:29 AM,69.1,69.1,100,29.95,2.0,NW,5.8,-,0.23,Rain,Heavy Rain,310,2013-12-31 14:29:00
4:33 AM,69.1,69.1,100,29.95,1.5,WNW,8.1,-,0.26,Rain,Heavy Rain,300,2013-12-31 14:33:00
4:53 AM,69.1,69.1,100,29.95,2.5,NNW,10.4,-,0.72,Rain,Heavy Rain,330,2013-12-31 14:53:00
5:10 AM,68.0,68.0,100,29.96,4.0,NW,9.2,-,0.13,Rain,Heavy Rain,320,2013-12-31 15:10:00
5:25 AM,66.9,66.9,100,29.96,2.0,Variable,3.5,-,0.20,Rain,Heavy Rain,0,2013-12-31 15:25:00
5:41 AM,66.9,66.9,100,29.96,4.0,WSW,4.6,-,0.31,Rain,Light Rain,240,2013-12-31 15:41:00
5:53 AM,66.9,66.9,100,29.96,5.0,West,3.5,-,0.33,Rain,Rain,270,2013-12-31 15:53:00
6:42 AM,68.0,68.0,100,29.97,10.0,West,6.9,-,0.02,,Overcast,260,2013-12-31 16:42:00
6:53 AM,68.0,68.0,100,29.98,10.0,West,4.6,-,0.02,,Overcast,270,2013-12-31 16:53:00
7:29 AM,68.0,68.0,100,29.99,10.0,SW,4.6,-,0.01,,Overcast,230,2013-12-31 17:29:00
7:53 AM,69.1,69.1,100,29.99,9.0,SW,5.8,-,0.01,Rain,Light Rain,230,2013-12-31 17:53:00
8:53 AM,71.1,70.0,96,30.02,10.0,SSW,3.5,-,0.01,,Mostly Cloudy,210,2013-12-31 18:53:00
9:00 AM,71.1,70.0,96,30.02,10.0,SW,3.5,-,N/A,,Mostly Cloudy,220,2013-12-31 19:00:00
9:53 AM,75.9,69.1,79,30.01,10.0,Calm,Calm,-,N/A,,Mostly Cloudy,0,2013-12-31 19:53:00
10:53 AM,77.0,70.0,79,30.01,10.0,North,4.6,-,N/A,,Mostly Cloudy,350,2013-12-31 20:53:00
11:53 AM,77.0,70.0,79,29.99,10.0,Variable,3.5,-,N/A,,Mostly Cloudy,0,2013-12-31 21:53:00
12:53 PM,79.0,70.0,74,29.94,10.0,North,8.1,-,N/A,,Scattered Clouds,360,2013-12-31 22:53:00
1:53 PM,78.1,71.1,79,29.93,10.0,ENE,8.1,-,N/A,,Scattered Clouds,60,2013-12-31 23:53:00
2:53 PM,79.0,71.1,77,29.91,10.0,NNE,9.2,-,N/A,,Scattered Clouds,20,2014-01-01 00:53:00
3:53 PM,77.0,70.0,79,29.91,10.0,North,6.9,-,N/A,,Mostly Cloudy,10,2014-01-01 01:53:00
4:01 PM,77.0,70.0,79,29.91,10.0,North,6.9,-,N/A,,Mostly Cloudy,350,2014-01-01 02:01:00
4:35 PM,78.1,69.1,74,29.92,10.0,NNE,4.6,-,N/A,,Mostly Cloudy,20,2014-01-01 02:35:00
4:53 PM,75.9,69.1,79,29.92,10.0,ENE,3.5,-,N/A,,Scattered Clouds,70,2014-01-01 02:53:00
5:53 PM,73.0,70.0,90,29.94,10.0,Calm,Calm,-,N/A,,Scattered Clouds,0,2014-01-01 03:53:00
6:14 PM,73.0,70.0,90,29.94,10.0,East,3.5,-,N/A,,Mostly Cloudy,100,2014-01-01 04:14:00
6:27 PM,72.0,70.0,93,29.94,10.0,Calm,Calm,-,N/A,,Scattered Clouds,0,2014-01-01 04:27:00
6:53 PM,71.1,70.0,96,29.95,10.0,SW,3.5,-,N/A,,Scattered Clouds,220,2014-01-01 04:53:00
7:01 PM,72.0,71.1,97,29.96,10.0,Calm,Calm,-,N/A,,Mostly Cloudy,0,2014-01-01 05:01:00
7:53 PM,72.0,71.1,97,29.96,7.0,Calm,Calm,-,N/A,,Mostly Cloudy,0,2014-01-01 05:53:00
8:02 PM,72.0,71.1,97,29.96,7.0,South,3.5,-,N/A,,Scattered Clouds,190,2014-01-01 06:02:00
8:53 PM,71.1,70.0,96,29.97,4.0,SW,3.5,-,N/A,,Clear,220,2014-01-01 06:53:00
9:10 PM,70.0,70.0,100,29.98,2.5,Calm,Calm,-,N/A,,Clear,0,2014-01-01 07:10:00
9:31 PM,69.1,69.1,100,29.98,1.5,Calm,Calm,-,N/A,,Mostly Cloudy,0,2014-01-01 07:31:00
9:53 PM,69.1,69.1,100,29.98,1.2,Calm,Calm,-,N/A,,Scattered Clouds,0,2014-01-01 07:53:00
10:26 PM,69.1,69.1,100,29.99,3.0,WSW,5.8,-,N/A,,Partly Cloudy,240,2014-01-01 08:26:00
10:53 PM,69.1,69.1,100,29.99,3.0,SW,5.8,-,N/A,,Scattered Clouds,230,2014-01-01 08:53:00
11:53 PM,69.1,68.0,96,29.97,5.0,WSW,4.6,-,N/A,,Scattered Clouds,240,2014-01-01 09:53:00